SCP
0 0 0 0 0 0 0 0 0 0 0 0 0 0 0 0 0 0 0 0 0 0 0 0 0 0 0 0 0 0 0 0 0 0 0 0 0 0 0 0 0 0 0
0 0 0 0 0 0 0 0 0 0 0 0 0 0 0 0 0 0 0 0 0 0 0 0 0 0 0 0 0 0 0 0 0 0 0 0 0 0 0 0 0 0 0
0 0 0 0 0 0 0 0 0 0 0 0 0 0 0 0 0 0 0 0 0 0 0 0 0 0 0 0 0 0 0 0 0 0 0 0 0 0 0 0 0 0 0
0 0 0 0 0 0 0 0 0 0 0 0 0 0 0 0 0 0 0 0 0 0 0 0 0 0 0 0 0 0 0 0 0 0 0 0 0 0 0 0 0 0 0
0 0 0 0 0 0 0 0 0 0 0 0 0 0 0 0 0 0 0 0 0 0 0 0 0 0 0 0 0 0 0 0 0 0 0 0 0 0 0 0 0 0 0
0 0 0 0 0 0 0 0 0 0 0 0 0 0 0 0 0 0 0 0 0 0 0 0 0 0 0 0 0 0 0 0 0 0 0 0 0 0 0 0 0 0 0
0 0 0 0 0 0 0 0 0 0 0 0 0 0 0 0 0 0 0 0 0 0 0 0 0 0 0 0 0 0 0 0 0 0 0 0 0 0 0 0 0 0 0
0 0 0 0 0 0 0 0 0 0 0 0 0 0 0 0 0 0 0 0 0 0 0 0 0 0 0 0 0 0 0 0 0 0 0 0 0 0 0 0 0 0 0
0 0 0 0 0 0 0 0 0 0 0 0 0 0 0 0 0 0 0 0 0 0 0 0 0 0 0 0 0 0 0 0 0 0 0 0 0 0 0 0 0 0 0
0 0 0 0 0 0 0 0 0 0 0 0 0 0 0 0 0 0 0 0 0 0 0 0 0 0 0 0 0 0 0 0 0 0 0 0 0 0 0 0 0 0 0
0 0 0 0 0 0 0 0 0 0 0 0 0 0 0 0 0 0 0 0 0 0 0 0 0 0 0 0 0 0 0 0 0 0 0 0 0 0 0 0 0 0 0
0 0 0 0 0 0 0 0 0 0 0 0 0 0 0 0 0 0 0 0 0 0 0 0 0 0 0 0 0 0 0 0 0 0 0 0 0 0 0 0 0 0 0
0 0 0 0 0 0 0 0 0 0 0 0 0 0 0 0 0 0 0 0 0 0 0 0 0 0 0 0 0 0 0 0 0 0 0 0 0 0 0 0 0 0 0
0 0 0 0 0 0 0 0 0 0 0 0 0 0 0 0 0 0 0 0 0 0 0 0 0 0 0 0 0 0 0 0 0 0 0 0 0 0 0 0 0 0 0
0 0 0 0 0 0 0 0 0 0 0 0 0 0 0 0 0 0 0 0 0 0 0 0 0 0 0 0 0 0 0 0 0 0 0 0 0 0 0 0 0 0 0
0 0 0 0 0 0 0 0 0 0 0 0 0 0 0 0 0 0 0 0 0 0 0 0 0 0 0 0 0 0 0 0 0 0 0 0 0 0 0 0 0 0 0
0 0 0 0 0 0 0 0 0 0 0 0 0 0 0 0 0 0 0 0 0 0 0 0 0 0 0 0 0 0 0 0 0 0 0 0 0 0 0 0 0 0 0
0 0 0 0 0 0 0 0 0 0 0 0 0 0 0 0 0 0 0 0 0 0 0 0 0 0 0 0 0 0 0 0 0 0 0 0 0 0 0 0 0 0 0
0 0 0 0 0 0 0 0 0 0 0 0 0 0 0 0 0 0 0 0 0 0 0 0 0 0 0 0 0 0 0 0 0 0 0 0 0 0 0 0 0 0 0
0 0 0 0 0 0 0 0 0 0 0 0 0 0 0 0 0 0 0 0 0 0 0 0 0 0 0 0 0 0 0 0 0 0 0 0 0 0 0 0 0 0 0
0 0 0 0 0 0 0 0 0 0 0 0 0 0 0 0 0 0 0 0 0 0 0 0 0 0 0 0 0 0 0 0 0 0 0 0 0 0 0 0 0 0 0
0 0 0 0 0 0 0 0 0 0 0 0 0 0 0 0 0 0 0 0 0 0 0 0 0 0 0 0 0 0 0 0 0 0 0 0 0 0 0 0 0 0 0
0 0 0 0 0 0 0 0 0 0 0 0 0 0 0 0 0 0 0 0 0 0 0 0 0 0 0 0 0 0 0 0 0 0 0 0 0 0 0 0 0 0 0
0 0 0 0 0 0 0 0 0 0 0 0 0 0 0 0 0 0 0 0 0 0 0 0 0 0 0 0 0 0 0 0 0 0 0 0 0 0 0 0 0 0 0
0 0 0 0 0 0 0 0 0 0 0 0 0 0 0 0 0 0 0 0 0 0 0 0 0 0 0 0 0 0 0 0 0 0 0 0 0 0 0 0 0 0 0
0 0 0 0 0 0 0 0 0 0 0 0 0 0 0 0 0 0 0 0 0 0 0 0 0 0 0 0 0 0 0 0 0 0 0 0 0 0 0 0 0 0 0
Wind_Speed
6 6 6 6 6 5 5 6 5 4 5 5 5 5 6 6 6 5 6 6 7 7 6 6 7 6 4 4 4 4 4 5 5 3 1 3 5 8 7 6 6 6 8
7 7 7 7 7 6 7 7 6 6 6 5 5 5 6 6 5 5 6 6 6 7 7 7 7 5 6 5 4 4 4 5 4 4 3 3 4 9 9 8 5 7 7
8 8 8 8 8 8 8 8 7 7 7 6 6 6 6 6 6 5 5 5 5 6 7 8 8 7 7 5 5 4 4 4 4 4 3 3 4 8 10 9 8 7 8
9 9 9 10 10 10 9 8 8 7 7 8 7 7 7 7 7 6 5 4 4 5 6 8 8 8 8 7 5 5 4 4 4 5 5 6 6 8 9 9 8 6 7
10 10 11 11 10 9 8 8 8 7 8 8 8 8 7 6 7 7 6 5 4 5 6 6 8 10 11 8 5 5 5 4 5 5 7 6 8 9 9 7 10 9 7
10 11 11 9 9 8 8 7 6 6 7 7 8 9 9 8 10 11 7 5 5 5 6 6 6 8 10 10 9 8 8 7 7 6 5 9 9 9 8 9 10 10 6
11 11 10 9 9 9 9 7 7 6 6 6 7 7 9 10 14 14 12 6 6 5 5 5 6 6 8 6 6 5 4 6 8 7 9 10 10 11 11 10 8 6 6
11 11 10 9 9 9 8 7 6 5 5 6 7 7 8 10 14 15 13 7 6 6 5 6 7 7 8 8 6 4 3 4 5 6 8 8 10 10 9 10 10 9 8
11 9 8 7 8 7 8 7 6 5 6 6 6 7 7 9 13 14 12 5 5 6 5 5 7 9 12 12 8 7 6 5 9 12 13 14 15 15 12 9 9 10 9
12 11 10 8 7 7 7 7 6 5 6 7 7 8 8 8 11 13 12 4 4 4 3 3 6 9 14 14 9 9 9 7 8 11 11 12 11 11 11 8 9 10 9
12 11 10 9 8 8 7 6 6 6 6 7 8 8 8 9 10 13 13 6 5 4 2 1 0 4 10 13 11 8 10 10 8 9 8 7 5 5 5 5 6 9 9
12 12 11 10 10 10 7 6 6 6 6 6 7 7 6 7 9 11 14 12 8 5 4 2 3 5 4 6 7 10 14 12 8 7 7 6 5 4 4 5 6 6 5
12 12 11 11 9 8 8 8 7 6 6 6 6 6 5 5 6 12 13 13 11 5 4 6 7 7 4 1 5 13 14 8 8 8 7 5 4 4 5 5 6 7 6
12 11 10 9 9 8 7 6 6 6 6 6 6 6 5 4 4 4 5 5 7 5 5 7 8 7 3 1 2 8 6 7 9 8 6 5 4 4 5 6 7 6 6
12 10 9 8 8 7 6 6 6 6 6 6 5 5 5 4 6 10 9 7 7 6 6 4 3 3 2 1 2 3 4 6 7 6 7 6 5 5 4 4 4 4 5
10 8 6 5 5 5 4 4 6 7 9 11 9 6 5 5 6 12 13 12 12 13 7 5 5 5 4 3 4 4 4 5 7 8 8 7 7 6 4 3 3 5 6
10 8 5 4 4 3 3 2 2 2 3 6 8 7 4 3 4 9 10 11 12 13 5 5 5 6 5 4 4 4 4 5 7 9 9 8 7 6 5 5 4 4 5
9 8 6 4 3 3 2 1 1 1 0 0 2 4 3 2 3 8 12 10 6 5 3 5 5 6 6 5 5 4 5 6 7 8 8 8 7 7 6 5 5 5 4
7 4 4 3 3 2 2 1 1 1 1 2 2 1 2 4 6 9 10 5 6 5 4 4 4 5 5 5 5 5 6 7 8 8 8 8 7 7 6 6 6 7 5
6 8 4 3 3 3 2 1 1 0 1 2 3 3 4 4 4 5 4 3 4 4 4 4 3 4 5 5 5 6 7 7 8 7 6 7 6 7 8 8 7 7 4
5 5 5 2 2 2 2 1 0 1 2 2 2 4 7 4 5 6 5 4 4 4 4 3 3 4 5 5 6 7 8 7 7 6 7 6 7 6 6 7 8 7 6
5 4 3 2 2 2 2 2 0 1 2 3 2 4 7 3 4 4 4 3 3 3 3 3 3 4 6 7 7 7 8 7 6 6 6 6 6 6 6 6 6 6 7
5 5 4 3 2 2 2 1 0 1 2 3 3 4 4 3 4 4 4 3 3 2 2 3 3 4 5 6 7 8 8 8 7 8 8 7 6 6 6 6 8 7 7
4 4 4 4 3 2 2 2 2 3 3 3 3 3 3 4 5 5 4 3 3 2 3 2 3 5 9 7 6 6 7 8 8 8 10 8 7 6 6 6 7 8 8
4 3 2 2 2 1 2 2 3 3 3 2 2 3 3 4 4 4 3 2 2 2 2 2 2 5 10 11 9 7 11 12 10 8 7 7 8 8 7 7 6 6 5
5 3 1 1 0 0 1 1 2 2 2 2 2 3 3 3 2 2 3 2 1 0 1 0 4 7 9 9 10 11 11 11 11 11 7 7 8 7 7 6 7 7 7
Wind_Direction
233 233 237 242 240 242 251 263 270 276 287 294 299 304 304 294 276 252 238 225 219 221 217 218 228 229 232 235 228 218 216 216 236 233 187 139 123 123 112 103 105 102 104
242 240 244 247 244 242 247 251 251 258 265 267 274 283 290 296 300 286 267 255 236 226 221 216 225 227 229 232 227 222 218 211 213 210 178 149 133 136 123 115 106 101 99
248 244 247 250 246 244 245 249 248 248 254 257 254 259 266 273 279 283 280 273 260 245 230 219 219 216 228 230 226 226 224 218 205 190 167 140 132 135 124 112 106 103 100
248 244 242 243 242 241 242 245 246 244 247 252 250 248 249 255 262 263 263 271 275 271 254 233 220 210 216 218 220 221 219 217 196 178 161 151 142 135 128 128 120 113 108
245 241 238 236 234 233 234 238 243 245 246 246 249 251 248 247 250 243 235 249 263 278 274 253 232 216 208 204 204 208 207 202 182 171 162 151 148 148 142 137 131 119 98
242 240 235 228 224 220 220 223 228 237 246 247 247 250 251 252 250 246 233 238 249 260 274 266 239 207 198 199 205 205 202 191 177 166 160 158 153 147 137 140 137 133 120
247 242 233 224 220 216 212 207 213 228 238 246 248 248 248 249 249 248 243 233 238 248 260 253 229 202 179 175 176 162 168 175 172 160 158 154 151 150 142 138 136 124 122
265 256 246 233 227 217 208 207 214 220 231 240 247 248 248 253 248 242 238 231 232 241 247 242 225 195 185 172 157 137 115 105 128 133 138 136 139 138 136 137 132 113 109
292 283 272 257 239 222 213 213 214 218 231 237 241 244 246 254 249 239 227 210 226 240 246 242 224 198 187 171 153 141 122 103 94 106 114 119 125 130 134 130 133 137 140
301 299 295 284 261 237 224 219 216 218 229 238 246 243 241 245 248 237 216 196 215 232 242 245 226 201 181 170 158 153 145 137 125 114 112 118 128 139 147 148 150 150 143
293 288 287 287 277 261 242 230 226 227 231 237 245 246 241 238 241 231 210 188 197 203 199 172 64 178 179 176 166 166 157 142 129 125 123 123 128 147 168 170 163 158 153
295 290 286 280 277 277 258 242 228 224 229 235 240 247 245 237 227 223 210 200 187 173 168 138 83 87 117 178 173 155 145 134 128 127 128 134 140 147 151 156 159 157 155
297 292 288 285 278 272 262 252 239 226 225 230 230 234 238 231 224 219 209 202 193 170 157 140 105 82 67 110 179 156 149 140 138 139 140 141 137 134 120 108 104 106 88
294 290 285 281 277 271 262 251 238 224 221 222 221 224 228 227 211 193 189 186 180 162 145 136 116 103 92 3 164 166 159 154 149 144 139 129 114 111 120 123 122 116 99
295 288 283 276 274 274 264 251 238 225 214 211 213 206 204 219 218 189 174 175 172 166 145 135 130 118 124 155 166 173 150 142 137 133 138 133 125 118 115 111 113 108 116
305 297 288 281 277 273 271 275 253 239 231 224 221 211 210 219 210 183 180 174 164 155 144 155 159 156 167 182 181 170 152 149 148 146 148 146 144 140 130 114 110 122 127
316 313 303 296 288 285 272 269 285 289 248 228 222 212 200 174 163 166 169 163 159 155 153 165 168 169 175 178 177 168 160 157 153 154 155 154 149 142 133 128 123 122 125
325 329 332 317 310 307 300 283 253 222 170 263 235 232 237 195 155 145 142 133 148 169 172 169 173 174 175 173 172 169 155 152 155 154 154 153 151 146 142 141 141 139 136
329 326 328 329 330 326 324 321 300 239 178 154 128 96 115 115 120 144 147 146 165 177 175 169 175 175 173 168 170 164 155 156 157 153 154 156 155 148 151 158 161 158 141
329 344 353 342 340 344 345 342 332 248 158 156 159 152 145 136 138 159 176 165 162 170 173 171 172 179 171 166 164 156 150 152 153 149 154 158 159 155 157 164 170 170 166
327 327 339 341 329 325 322 318 303 152 137 137 157 168 166 161 162 170 175 177 166 164 169 178 180 188 181 167 160 155 151 152 153 150 153 157 155 150 150 157 164 164 156
329 326 314 302 296 292 294 291 256 150 144 140 143 160 175 160 156 164 172 173 163 157 166 185 202 199 187 173 161 155 152 152 153 153 154 155 151 146 143 145 150 153 154
327 332 332 322 309 305 302 302 318 120 124 132 141 144 161 162 161 164 166 158 154 173 205 212 210 188 171 164 159 156 155 160 161 157 153 150 147 148 149 149 152 153 160
305 315 326 333 345 359 9 26 51 78 100 109 119 129 138 138 139 146 149 153 170 199 219 226 195 166 155 151 150 150 151 153 153 154 150 149 152 155 155 154 155 162 169
293 286 294 319 344 16 39 52 65 73 79 87 95 98 102 108 115 126 140 158 185 212 239 232 167 157 153 149 147 145 148 150 153 151 143 143 154 160 161 162 160 161 166
330 319 284 250 285 54 89 84 81 87 89 89 88 90 98 102 105 119 137 152 165 227 301 180 156 155 154 150 147 145 149 153 156 157 148 142 148 159 164 169 173 174 177